Home > Weather > Longueuil > Past weeks

Flag for Canada Weather for the Past 2 Weeks in Longueuil, Quebec, Canada

Now
55 °F

Cool.


Feels Like: 55 °F
Forecast: 47 / 62 °F
Wind: 3 mph from South

Location: Mc Tavish

Current Time: May 4, 2016 at 9:46:22 PM

Latest Report: May 4, 2016 at 9:00 PM


Visibility: N/A

Pressure: 29.83 "Hg

Humidity: 68%

Dew Point: 45 °F

Location of LongueuilLocation

Historic Weather in Longueuil — Graph

°F

Longueuil Temperature Yesterday

Maximum temperature yesterday: 55 °F (at 5:00 PM)
Minimum temperature yesterday: 41 °F (at 5:00 AM)
Average temperature yesterday: 48 °F

High & Low Weather Summary for the Past Weeks

 TemperatureHumidityPressure
High69 °F (Apr 21, 5:00 PM)97% (May 1, 8:00 PM)30.37 "Hg (May 1, 8:00 PM)
Low30 °F (Apr 27, 7:00 AM)12% (Apr 21, 2:00 PM)29.78 "Hg (Apr 22, 1:00 PM)
Average45 °F49%30.04 "Hg
* Reported Apr 19 8:00 PM — May 4 8:00 PM, Longueuil, Weather by CustomWeather, © 2016

Note: Actual official high and low records may vary slightly from our data, if they occured in-between our weather recording intervals... More about our weather records

Advertising

Longueuil Weather History for the Previous 24 Hours

Scroll right to see more
 ConditionsComfort  
Time TempWeatherWind HumidityBarometerVisibility
8:00 PM
Wed, May 4
57 °FRefreshingly cool.2 mph58%29.81 "HgN/A
7:00 PM56 °FCool.3 mph67%29.82 "HgN/A
6:00 PM56 °FCool.6 mph65%29.81 "HgN/A
5:00 PM56 °FCool.6 mph65%29.81 "HgN/A
4:00 PM55 °FCool.6 mph68%29.82 "HgN/A
3:00 PM54 °FCool.5 mph68%29.83 "HgN/A
2:00 PM52 °FCool.5 mph72%29.84 "HgN/A
1:00 PM51 °FCool.6 mph70%29.84 "HgN/A
12:00 PM49 °FCool.3 mph80%29.85 "HgN/A
11:00 AM46 °FCool.6 mph85%29.86 "HgN/A
10:00 AM44 °FQuite cool.6 mph84%29.86 "HgN/A
9:00 AM44 °FQuite cool.5 mph85%29.86 "HgN/A
8:00 AM42 °FQuite cool.7 mph89%29.85 "HgN/A
7:00 AM41 °FQuite cool.5 mph88%29.84 "HgN/A
6:00 AM40 °FQuite cool.5 mph89%29.83 "HgN/A
5:00 AM42 °FQuite cool.3 mph87%29.83 "HgN/A
4:00 AM42 °FQuite cool.5 mph85%29.83 "HgN/A
3:00 AM44 °FQuite cool.3 mph81%29.83 "HgN/A
2:00 AM46 °FCool.3 mph75%29.84 "HgN/A
1:00 AM46 °FCool.3 mph73%29.85 "HgN/A
12:00 AM46 °FCool.3 mph73%29.86 "HgN/A
11:00 PM
Tue, May 3
46 °FCool.2 mph77%29.87 "HgN/A
10:00 PM49 °FCool.3 mph70%29.87 "HgN/A
9:00 PM50 °FCool.3 mph67%29.87 "HgN/A
Weather by CustomWeather, © 2016

See weather overviewHow to use our weather pages